Regional Weather Roundup
Issued by NWS

Home | Current Version | Previous Version | Text Only | Print | Product List | Glossary On
Versions: 1 2 3 4 5 6 7 8 9 10 11 12 13 14 15 16 17 18 19 20 21 22 23 24 25 26 27 28
000
ASUS44 KBMX 302110
RWRAL

ALABAMA REGIONAL WEATHER ROUNDUP
NATIONAL WEATHER SERVICE BIRMINGHAM AL
400 PM CDT SAT APR 30 2016

NOTE: "FAIR" INDICATES FEW OR NO CLOUDS BELOW 12,000 FEET
WITH NO SIGNIFICANT WEATHER AND/OR OBSTRUCTIONS TO VISIBILITY.

THE REMARK "TC" DENOTES TEMPERATURE IN DEGREES CELSIUS.

ALZ001>011-014-016>018-020-302200-
NORTH ALABAMA

CITY           SKY/WX    TMP DP  RH WIND       PRES   REMARKS
MUSCLE SHOALS  NOT AVBL
HUNTSVILLE     CLOUDY    78  65  63 NW6       29.87F
DECATUR        PTSUNNY   76  65  68 N3        29.88F
HALEYVILLE     PTSUNNY   73  68  84 W7        29.91S THUNDER
GADSDEN        MOSUNNY   84  65  52 SW10G17   29.89S
$$

ALZ012-013-022-023-030>036-040>044-302200-
WEST CENTRAL ALABAMA

CITY           SKY/WX    TMP DP  RH WIND       PRES   REMARKS
TUSCALOOSA     CLOUDY    80  67  64 S7        29.88F
$$

ALZ015-024>027-033>036-040>044-302200-
CENTRAL ALABAMA

CITY           SKY/WX    TMP DP  RH WIND       PRES   REMARKS
BIRMINGHAM     CLOUDY    82  63  52 SW16      29.91S
MONTGOMERY     CLOUDY    85  66  53 S9        29.90S
SHELBY CO ARPT MOSUNNY   81  66  60 SW8       29.90S
MAXWELL AFB    CLOUDY    85  67  54 S7        29.89F
GREENVILLE     FAIR      83  65  54 S9        29.89F
$$

ALZ019-021-028-029-037-038-045>048-302200-
EAST CENTRAL ALABAMA

CITY           SKY/WX    TMP DP  RH WIND       PRES   REMARKS
ANNISTON       CLOUDY    85  63  47 S9        29.89F
ALEXANDER CITY CLOUDY    85  71  62 SW9       29.91F HX  90
AUBURN         CLOUDY    84  66  54 SW12      29.93S
$$

ALZ051>064-302200-
SOUTHWEST ALABAMA

CITY           SKY/WX    TMP DP  RH WIND       PRES   REMARKS
MOBILE         CLOUDY    78  73  84 SE13      29.89S
BROOKLEY FIELD CLOUDY    78  73  84 SE12      29.89F
EVERGREEN      PTSUNNY   81  66  60 S8        29.89F
$$

ALZ049-050-065>069-302200-
SOUTHEAST ALABAMA

CITY           SKY/WX    TMP DP  RH WIND       PRES   REMARKS
DOTHAN         CLOUDY    86  65  49 S9        29.95S
OZARK          CLOUDY    85  67  55 S6        29.90F
TROY           CLOUDY    86  67  52 S10       29.91F
EUFAULA        FAIR      89  67  47 S7        29.89F HX  92
$$




USA.gov is the U.S. government's official web portal to all federal, state and local government web resources and services.